CZ-4B DEB, 49046

Orbit data source: Space-Track

CZ-4B DEB, 49046 is space debris in SSO originally from a launch on Sun, 27 Sep 2020 UTC launched from the Taiyaun Space Center, China (TSC). Debris objects in space refer to the collection of defunct objects orbiting the Earth. Examples of debris include non-operational satellites, rocket bodies, and fragments generated from explosions, collisions, or faulty payload assembly.

Loading next visibility...
Identifier
49046, 2020-067H
Orbit
SSO
Country
Flag of CNCN / PRC
Related business
Manufacturer
SAST
Mission
Spacecraft
Bus & Motor
Unknown
Mass
Unknown
Launch date (UTC)
2020-09-27 (5 years ago)
Launch vehicle
Unknown
Launch site
Taiyaun Space Center, China (TSC)
Object type
Payload
Rocket body
Debris
Shape & HBR
Unknown shape, 0.1 m
Radar Cross Section
Small (<0.1 m²)

Expand to show TLE details & history
Last TLE update: 17 hours ago

TLE from 17 hours ago
0 CZ-4B DEB
1 49046U 20067H   25346.59004614  .00004068  00000-0  58962-3 0  9998
2 49046  97.7643  25.9047 0029945 177.5219 182.6145 14.76291277256342
Epoch: 2025-12-12T14:09Z
TLE epoch observation values (Epoch: 2025-12-12T14:09:39.986Z)
Latitude
-0.00004°
Longitude
91.95861°
Altitude
665.077 km
Speed
7.513 km/s
True Right ascension
01h 43m 37s
True Declination
0° 00' 00"
Sunlit
Object was in full shadow at epoch
Visualization orbit readout
Latitude
Unknown
Longitude
Unknown
Altitude
Unknown
Speed
Unknown
Apparent Right ascension
Unknown
Apparent Declination
Unknown
Sunlit
N/A
Visualization observer readout
Local Sidereal Time
05:22:59
Azimuth
Unknown
Elevation
Unknown
Doppler factor
Unknown
Orbital elements
Apogee altitude
659.105 km
Perigee altitude
617.085 km
Semi-major axis
7,016.232 km
Eccentricity
0.00299
Inclination
97.7643°
RAAN
25.9047°
Arg. of periapsis
177.5219°
True anomaly
182.59891°
Mean anomaly
182.6145°
Eccentric anomaly
182.6067°
Mean motion
3.69307 °/min
Orbital period
97.48 mins
BSTAR
0.00058962
Loading maneuver chart data...
Computing Atmospheric mass density...
Loading historical data...
Loading historical data...
Loading historical data...
Loading historical data...
Loading historical data...
Loading historical data...
Loading historical data...

Documentation

Showing up to 5 results
|